www.pogodaiklimat.ru

Погода и климат >> Архив погоды >> Россия >> Приморский край >> Владивосток


АРХИВ ПОГОДЫ в Владивостоке

Время (UTC), дата Ветер
(напр.,м/с)
 
Видим.   Явления Облачность Т
(С)
Тd
(С)
f
(%)
Тe
(С)
Тes
(С)
Комфортность P
(гПа)
Po
(гПа)
Тmin
(С)
Tmax
(С)
R
(мм)
R24
(мм)
S
(см)
06 22.04 Ю 7 50 км ясно +10.7 -3.3 37 +8 +11 по сезону 1011.2 988.6
09 22.04 Ю 6 50 км ясно +8.8 -3.4 42 +6 +6 по сезону 1011.9 989.2 +12.4
12 22.04 ЮВ 9-12
{12}
50 км 4/4 600 м
[Sc]
+3.1 +2.4 95 -4 -4 холодно 1014.1 990.9
15 22.04 ЮВ 11-15
{15}
50 км 4/4 600 м
[Sc]
+2.5 +1.7 94 -5 -5 холодно 1014.6 991.3
18 22.04 ЮВ 10-12
{15}
50 км 3/3 600 м
[Sc]
+2.4 +1.4 93 -5 -5 холодно 1014.5 991.2
21 22.04 ЮВ 12-17
{17}
50 км 8/8 600 м
[Sc]
+3.0 +1.6 91 -5 -5 холодно 1013.9 990.6 +2.3
00 23.04 ЮВ 13-17
{19}
50 км 10/10 600 м
[Sc]
+3.7 +1.7 87 -4 -4 холодно 1014.5 991.4
03 23.04 ЮВ 13-19
{20}
50 км 10/10 600 м
[Sc]
+4.7 +1.9 82 -3 -3 холодно 1014.1 991.0
06 23.04 ЮВ 16-22
{22}
20 км 10/10 600 м
[Sc]
+5.1 +3.3 88 -3 -3 очень
холодно
1012.4 989.4
09 23.04 ЮВ 16-23
{24}
20 км 10/10 600 м
[St]
+5.3 +4.1 92 -2 -2 холодно 1011.3 988.3 +5.3
12 23.04 ЮВ 15-19
{23}
20 км 10/10 200 м
[St]
+5.5 +4.8 95 -2 -2 прохладно 1013.5 990.4
15 23.04 Ю 5
{23}
20 км 10/10 200 м
[St]
+5.9 +5.2 95 +1 +1 по сезону 1015.6 992.6
18 23.04 штиль 0 20 км {туман} 10/10 200 м
[St]
+5.4 +5.2 99 +4 +4 по сезону 1016.5 993.4
21 23.04 ЮВ 2 20 км в посл. час туман {морось} 3/0
[Ci fib]
+4.6 +4.4 99 +2 +2 по сезону 1018.6 995.4 +4.3 0.8
00 24.04 ЮВ 4 200 м туман ?/? +5.1 +5.1 100 +1 +1 по сезону 1019.2 996.0 +4.3
03 24.04 ЮВ 9-12
{12}
200 м туман ?/? +4.3 +4.3 100 -2 -2 холодно 1018.3 995.0
06 24.04 Ю 7-11
{14}
200 м слабый дождь {туман} туман ?/? +4.4 +4.4 100 -2 -2 очень
холодно
1017.2 994.0
09 24.04 ЮВ 15-19
{19}
200 м туман {дождь} ?/? +5.8 +5.8 100 -2 -2 холодно 1013.9 990.9 +8.2 3
12 24.04 ЮВ 12-16
{19}
200 м туман {дождь} ?/? +5.7 +5.7 100 -1 -1 прохладно 1014.2 991.2
15 24.04 Ю 5
{17}
200 м туман ?/? +6.0 +6.0 100 +1 +1 по сезону 1014.3 991.3
18 24.04 З 2 200 м туман ?/? +5.4 +5.4 100 +3 +3 по сезону 1013.3 990.3
21 24.04 З 1 10 км в посл. час туман 8/8 600 м
[Sc]
+5.1 +5.1 100 +4 +4 по сезону 1013.8 990.7 +5.0 2
00 25.04 Ю 2 200 м туман ?/? +6.2 +6.2 100 +4 +4 по сезону 1014.6 991.6 +4.6
03 25.04 20 км {туман} н/о +10.9 +2.1 55 +8 +11 тепло 1013.8 991.2
06 25.04 ЮВ 6 20 км {дождь, туман} 8/8 600 м
[Cb cap]
+10.6 +2.5 57 +8 +9 по сезону 1012.8 990.2
09 25.04 СВ 2
{18}
10 км слабый ливневой дождь 10/10 600 м
[Cb cap]
+7.1 +3.3 77 +5 +5 по сезону 1015.2 992.3 +12.2 0.0
12 25.04 Ю 5
{11}
20 км {ливн. осадки} 3/3 600 м
[Sc]
+6.7 +1.2 68 +3 +3 по сезону 1015.4 992.5
15 25.04 ЮЗ 3 20 км ясно +6.6 +0.7 66 +4 +4 по сезону 1015.6 992.6
18 25.04 З 4 20 км ясно +5.8 -0.3 65 +2 +2 по сезону 1014.5 991.4
21 25.04 Ю 3 20 км ясно +4.6 +0.3 74 +1 +2 по сезону 1013.6 990.5 +4.4
00 26.04 Ю 7 50 км 3/0
[Ac lent]
+8.3 0.0 56 +4 +6 по сезону 1012.4 989.6
03 26.04 Ю 7
{11}
50 км 10/10 600 м
[Cb calv]
+12.1 -0.4 42 +10 +10 тепло 1009.9 987.4
06 26.04 СЗ 2
{13}
20 км слабый ливневой дождь 8/8 600 м
[Cb calv]
+9.0 +1.5 59 +8 +10 по сезону 1008.8 986.2
09 26.04 З 7-10
{16}
50 км {ливн. осадки} 9/9 600 м
[Cb calv]
+9.2 -0.4 51 +6 +6 по сезону 1008.2 985.5 +12.9 0.4
12 26.04 З 9-12
{16}
50 км {ливн. осадки} 1/1 600 м
[Cb calv]
+8.5 -0.1 55 +4 +4 по сезону 1009.4 986.7
15 26.04 З 3
{12}
50 км 8/8 600 м
[Cb calv]
+7.5 -0.5 57 +5 +5 по сезону 1008.7 985.9
18 26.04 З 4
{11}
50 км 9/9 600 м
[Cb calv]
+6.9 -1.1 57 +4 +4 по сезону 1006.8 984.1
21 26.04 З 5 50 км 10/3 600 м
[Sc Ci fib]
+6.8 -1.4 56 +3 +3 по сезону 1005.6 982.8 +6.2
00 27.04 СЗ 5
{11}
50 км 10/4 600 м
[Sc Ci fib]
+8.8 -1.0 50 +6 +8 по сезону 1004.7 982.1
03 27.04 СЗ 6-10
{12}
50 км {ливн. осадки} 9/9 600 м
[Cb calv]
+11.7 -1.7 39 +9 +10 тепло 1003.1 980.8
06 27.04 СЗ 5
{14}
50 км {ливн. осадки} 8/8 600 м
[Cb calv]
+12.8 -1.4 37 +11 +12 тепло 1001.8 979.6
09 27.04 СЗ 2
{11}
50 км {ливн. осадки} 10/6 600 м
[Cb calv Ci fib]
+12.4 -0.9 40 +12 +12 тепло 1001.8 979.5 +14.0
12 27.04 В 4 50 км {ливн. осадки} ясно +9.4 -1.3 47 +7 +7 тепло 1003.2 980.7
15 27.04 Ю 3 50 км 8/8 600 м
[Sc]
+8.5 +0.5 57 +6 +6 тепло 1002.7 980.1
18 27.04 ЮВ 4 50 км 8/8 600 м
[Sc]
+6.5 +1.8 72 +3 +3 по сезону 1001.2 978.5
21 27.04 Ю 2 50 км 5/5 600 м
[Sc]
+6.8 +2.2 72 +5 +5 по сезону 1000.4 977.7 +6.5
00 28.04 СЗ 4 50 км 10/4
[Sc diur, vesp Ci fib]
+10.4 +1.2 53 +8 +11 тепло 1000.2 977.8
03 28.04 С 3
{12}
50 км в посл. час ливневой дождь 6/6 600 м
[Cb calv]
+13.1 -0.2 40 +12 +18 тепло 999.1 977.0
06 28.04 СЗ 7-11
{11}
50 км {ливн. осадки} 10/10 600 м
[Cb cap]
+11.5 +0.5 47 +9 +9 по сезону 999.4 977.1
09 28.04 Ю 1
{11}
50 км {ливн. осадки} 8/8 600 м
[Cb cap]
+11.4 -0.1 45 +12 +12 тепло 1000.3 978.0 +14.1 0.0
12 28.04 Ю 4 50 км {ливн. осадки} 6/6 600 м
[Cb cap]
+9.3 +1.6 59 +7 +7 тепло 1002.0 979.5
15 28.04 ЮЗ 2 50 км 3/3 600 м
[Sc]
+9.1 +0.9 56 +8 +8 тепло 1001.7 979.3
18 28.04 Ю 3 50 км 3/3 600 м
[Sc]
+8.4 +1.6 62 +6 +6 тепло 1001.2 978.6
21 28.04 ЮВ 6 50 км 3/3 600 м
[Cu hum]
+5.6 +2.6 81 +1 +1 по сезону 1000.6 977.9 +5.6
00 29.04 ЮВ 6 50 км 4/4 600 м
[Sc]
+8.7 +4.1 73 +5 +7 по сезону 1000.0 977.5 +5.4
03 29.04 ЮВ 7 50 км 10/0
[As trans]
+12.9 +3.4 52 +10 +12 тепло 998.1 976.0

 

Местоположение метеостанции Владивосток (Приморский край, Россия): широта 43.12 долгота 131.90 высота над уровнем моря 188 м.

В архиве по умолчанию представлена погода в Владивостоке за последнюю неделю. Архивные данные за месяц целиком и за предыдущие месяцы, начиная с января 2011 года, Вы можете получить, выбрав интересующий диапазон дат из раскрывающегося списка и нажав кнопку "Ввод!".

Внимание! Время в таблицах - всемирное. Для получения местного времени необходимо прибавить поправку, которая в Владивостоке равна 10 ч.

Смотрите также архив погоды в соседних городах и на ближайших метеорологических станциях:

Погода в Барабаше (Приморский край, Россия) (42 км)
Погода в Находке (Приморский край, Россия) (81 км)
Погода в Гамове (Приморский край, Россия) (84 км)
Погода в Тимирязевском (Приморский край, Россия) (85 км)
Погода в Партизанске (Приморский край, Россия) (89 км)
Погода в Посьете (Приморский край, Россия) (104 км)
Погода в Полтавке (Приморский край, Россия) (112 км)
Погода в Анучино (Приморский край, Россия) (130 км)
Погода в Хороль (Приморский край, Россия) (146 км)
Погода в Пограничном (Приморский край, Россия) (150 км)

Пояснения к столбцам:

Ветер - указаны скорость ветра в м/с - средняя за 10 мин, порывы в срок и между сроками (в фигурных скобках) и направление, откуда дует ветер: С - северный, СВ - северо-восточный, В - восточный, ЮВ - юго-восточный, Ю - южный, ЮЗ - юго-западный, З - западный, СЗ - северо-западный.
Видимость - горизонтальная дальность видимости в метрах или километрах. При видимости от 1 до 10 км при отсутствии осадков обычно наблюдается дымка, при ухудшении видимости до 1 км и менее - туман. В сухую погоду видимость может ухудшаться дымом, пылью или мглою.
Явления - указаны атмосферные явления, наблюдавшиеся в срок или в последний час перед сроком; фигурными скобками обозначены явления, наблюдавшиеся между сроками (за 1-3 часа до срока); квадратными скобками обозначены град или гололедные отложения с указанием их диаметра в мм.
Облачность - указаны через наклонную черту общая и нижняя облачность в баллах и высота нижней границы облаков в метрах; квадратными скобками обозначены формы облаков: Ci - перистые, Cs - перисто-слоистые, Cc - перисто-кучевые, Ac - высококучевые, As - высокослоистые, Sc - слоисто-кучевые, Ns - слоисто-дождевые, Cu - кучевые, Cb - кучево-дождевые. Подробнее классификацию облаков см. в Атласе облаков (PDF).
T - Температура воздуха - температура, измеренная на высоте 2 м над землей.
Td - Температура точки росы - температура, при понижении до которой содержащийся в воздухе водяной пар достигнет насыщения.
f - Относительная влажность воздуха - влажноcть воздуха, измеренная на высоте 2 м над землей.
Te - Эффективная температура - температура, которую ощущает одетый по сезону человек в тени. Характеристика душности погоды. При расчете учитывается влияние влажности воздуха и скорости ветра на теплоощущения человека.
Tes - Эффективная температура на солнце - температура, которую ощущает человек, с поправкой на солнечный нагрев. Характеристика знойности погоды. Зависит от высоты солнца над горизонтом, облачности и скорости ветра. Ночью, в пасмурную погоду, а также при ветре 12 м/с и более поправка равна нулю.
P - Атмосферное давление - приведенное к уровню моря атмосферное давление.
Po - Атмосферное давление - измеренное на уровне метеостанции атмосферное давление.
Tmin - Минимальная температура - минимум температуры воздуха на высоте 2 м над землей.
Tmax - Максимальная температура - максимум температуры воздуха на высоте 2 м над землей.
R - Количество осадков - Количество выпавших осадков за период времени, мм. При наведении курсора мыши на число - период времени, за который выпало указанное количество осадков.
R24 - Количество осадков - Количество выпавших осадков за 24 часа, мм.
S - Снежный покров - Высота снежного покрова, см. При наведении курсора мыши на число - состояние снежного покрова и степень покрытия местности в баллах.